MHPL

Puerto Lempira Airport

Airport
ICAO code
MHPL
IATA Code
PEU
Summary
ICAO Region
CARSAM
ICAO Territory
Location

Puerto Lempira, Gracias a Dios Department

Serving
Puerto Lempira
Elevation
33 ft
Coordinates
15° 15' 42" N , 83° 46' 29" W
KCC
Metar
MHPL 202100Z 35006KT 9999 SCT026TCU 30/24 Q1018

Puerto Lempira Airport is an airport serving Puerto Lempira in Gracias a Dios Department, Honduras.

Climatology

Tropical monsoon climate (Köppen climate classification Am)

Airport map

Aerial View

SKYbrary Partners:

Safety knowledge contributed by: